Location: Newark
(57.7279°N, 5.6916°W)
Time: 21:44:18
(UTC+00:00)

N. Korean satellite - Pass Details

Date: 12 December 2019
Orbit: 454 x 507 km, 97.2° (Epoch: 29 January)

Event Time Altitude Azimuth Distance (km) Brightness Sun altitude
Rises 16:23:14 0° 142° (SE) 2,603 10.3 -5.7°
Reaches altitude 10° 16:25:25 10° 135° (SE) 1,718 9.2 -5.9°
Maximum altitude 16:28:52 38° 66° (ENE) 782 7.1 -6.3°
Drops below altitude 10° 16:32:18 10° 358° (N) 1,710 9.0 -6.7°
Sets 16:34:27 0° 350° (N) 2,589 10.0 -6.9°
